Location: *
(43.4667°N, 11.6833°E)
Time: 20:39:23
(UTC+00:00)

SL-08 RB Rocket - Pass Details

Date: 19 July 2019
Orbit: 648 x 684 km, 97.9° (Epoch: 18 August)

Event Time Altitude Azimuth Distance (km) Brightness Sun altitude
Exits shadow 19:14:52 - 156° (SSE) 2,836 6.4 -4.8°
Reaches altitude 10° 19:16:47 10° 153° (SSE) 2,054 5.7 -5.0°
Maximum altitude 19:21:11 61° 74° (ENE) 742 3.8 -5.7°
Drops below altitude 10° 19:25:37 10° 354° (N) 2,060 6.9 -6.3°
Sets 19:27:51 0° 351° (N) 2,974 7.8 -6.7°
